Мулен

Франция     46°33′56″N   3°20′06″E
В апреле 2022 года жителям России запретили посещать сайт meteo.paraplan.net по решению Генеральной прокуратуры. Аудитория сайта уменьшилась в 10 раз. Владельцы сайта не видят смысла в поддержке погодного сервера в таких условиях. Сайт будет закрыт в октябре.
темп.,
°C
ветер,
м/с
пор.,
м/с
влажн.,
%
обл.,
%
осадки,
мм/ч
давл.,
гПа
погр.,
м
25 сентября, вс
вс2523:00+12з1185100 0.2 101425
02:00+12з1189100 0.4 101418
05:00+11з1196100 0.6 101322
08:00+11зсз2698100 2.6 1014253
11:00+12сз2491100 0.1 1015371
14:00+15зсз136588 0.1 1015670
17:00+14сз258692 1.3 1014472
20:00+11сз11975 2.3 101615
26 сентября, пн
пн2623:00+9зюз119777 0.0 101617
02:00+10з139596 0.0 101594
05:00+9з159787 0.0 1014111
08:00+9з1796100 0.0 1013207
11:00+12з2784100 0.1 1013460
14:00+17з4746100 0.1 10101579
17:00+18зюз31035100 0.0 10082207
20:00+12зюз41482100 0.6 10071260
27 сентября, вт
вт2723:00+11зсз4119253 7.1 10071042
02:00+9зсз21091100 7.3 1009509
05:00+9з299593 0.5 1010415
08:00+8зсз2898100 1.1 1011306
11:00+11з37856 0.3 1011767
14:00+15з4750100 0.4 10101969
17:00+15з384899 0.0 10092029
20:00+12юз1466100 0.0 1009181
28 сентября, ср
ср2823:00+12юз31074100 0.1 1007819
02:00+12зюз31192100 0.6 1006930
05:00+11юз21096100 1.1 1003643
08:00+13юз41396100 3.8 10011124
11:00+14з41192100 1.1 10011273
14:00+10ссз2598100 5.6 1003323
17:00+10з1597100 1.1 1003353
20:00+10юз1398100 1.1 1004127
29 сентября, чт
чт2923:00+10зюз1798100 0.4 1004291
02:00+10юз1496100 1.3 1004122
05:00+9зюз1695100 0.7 1003164
08:00+7з179936 0.9 1004196
11:00+11зсз258342 0.0 1005718
14:00+12зсз357761 0.9 1006831
17:00+14сз356237 0.3 10061279
20:00+8зсз119158 0.8 100910